Sheridan, WY

1:34 PM MST on February 11, 2016 (GMT -0700)
Sheridan County

Weather History for KSHR - November, 2014

Change the Weather History Date:

Monday, November 17, 2014

  Actual Average Record
Temperature  
Mean Temperature 15 °F 32 °F  
Max Temperature 28 °F 45 °F 73 °F (1908)
Min Temperature 1 °F 19 °F -13 °F (1955)
Degree Days  
Heating Degree Days 50 33  
Month to date heating degree days 656 497  
Since 1 July heating degree days 1385 1405  
Cooling Degree Days 0 0  
Month to date cooling degree days 0 0  
Year to date cooling degree days 346 419  
Moisture  
Dew Point 5 °F    
Average Humidity 69    
Maximum Humidity 92    
Minimum Humidity 46    
Precipitation  
Precipitation T in 0.02 in 0.55 in (1907)
Month to date precipitation 0.73 0.43  
Year to date precipitation 13.59 13.32  
Sea Level Pressure  
Sea Level Pressure 30.37 in    
Wind  
Wind Speed 5 mph (West)    
Max Wind Speed 20 mph    
Max Gust Speed 24 mph    
Visibility 10 miles    
Events      
T = Trace of Precipitation, MM = Missing Value Source: NWS Daily Summary

Daily Weather History Graph

Daily Weather History Graph

Search for Another Location

Airport or City:

Trip Planner

Search our weather history database for the weather conditions in past years. The results will help you decide how hot, cold, wet, or windy it might be!

Date:

Astronomy

Nov. 17, 2014 Rise Set
Actual Time 7:07 AM MST 4:37 PM MST
Civil Twilight 6:35 AM MST 5:09 PM MST
Nautical Twilight 6:00 AM MST 5:45 PM MST
Astronomical Twilight 5:25 AM MST 6:19 PM MST
Moon 1:59 AM MST (11/17) 2:13 PM MST (11/17)
Length of Visible Light 10h 33m
Length of Day
9h 29m
Waning Crescent, 22% of the Moon is Illuminated
Nov 17
Waning Crescent
Nov 22
New
Nov 29
First Quarter
Dec 6
Full
Dec 14
Last Quarter

Hourly Weather History & Observations

Time (MST) Temp. Windchill Dew Point Humidity Pressure Visibility Wind Dir Wind Speed Gust Speed Precip Events Conditions
12:53 AM 7.0 °F - 3.0 °F 84% 30.43 in 10.0 mi Calm Calm - N/A   Clear
1:53 AM 8.6 °F -1.3 °F 3.2 °F 79% 30.24 in 10.0 mi ESE 5.8 mph - N/A   Clear
2:53 AM 3.9 °F -3.4 °F -0.0 °F 84% 30.45 in 10.0 mi SSW 3.5 mph - N/A   Clear
3:53 AM 3.0 °F -4.4 °F -0.9 °F 84% 30.48 in 10.0 mi NW 3.5 mph - N/A   Scattered Clouds
4:03 AM 6.1 °F -4.3 °F 1.9 °F 83% 30.27 in 10.0 mi West 5.8 mph - N/A   Mostly Cloudy
4:10 AM 7.0 °F -4.5 °F 3.0 °F 84% 30.27 in 5.0 mi West 6.9 mph - N/A   Mostly Cloudy
4:43 AM 8.1 °F -4.3 °F 3.9 °F 83% 30.27 in 8.0 mi WNW 8.1 mph - 0.00 in   Mostly Cloudy
4:53 AM 8.1 °F -3.2 °F 3.9 °F 83% 30.48 in 7.0 mi WNW 6.9 mph - 0.00 in   Mostly Cloudy
5:42 AM 9.0 °F -5.9 °F 5.0 °F 84% 30.27 in 9.0 mi West 11.5 mph - 0.00 in   Scattered Clouds
5:53 AM 9.0 °F -3.2 °F 6.1 °F 88% 30.48 in 10.0 mi WNW 8.1 mph - 0.00 in   Mostly Cloudy
6:07 AM 9.0 °F -4.2 °F 5.0 °F 84% 30.26 in 10.0 mi WNW 9.2 mph - N/A   Scattered Clouds
6:19 AM 8.1 °F -5.3 °F 3.9 °F 83% 30.26 in 10.0 mi NW 9.2 mph - N/A   Mostly Cloudy
6:21 AM 8.1 °F -6.2 °F 3.9 °F 83% 30.26 in 10.0 mi NW 10.4 mph - N/A   Scattered Clouds
6:53 AM 6.1 °F -0.9 °F 3.0 °F 87% 30.48 in 10.0 mi WNW 3.5 mph - N/A   Scattered Clouds
7:53 AM 6.1 °F - 1.9 °F 83% 30.49 in 10.0 mi Calm Calm - N/A   Clear
8:22 AM 5.0 °F - 1.9 °F 87% 30.25 in 10.0 mi Calm Calm - N/A   Scattered Clouds
8:53 AM 6.1 °F -4.3 °F 3.9 °F 91% 30.49 in 10.0 mi South 5.8 mph - N/A   Clear
9:53 AM 10.0 °F 3.6 °F 8.1 °F 92% 30.48 in 10.0 mi South 3.5 mph - N/A   Clear
10:53 AM 14.0 °F 8.2 °F 8.1 °F 77% 30.45 in 10.0 mi SSE 3.5 mph - N/A   Clear
11:53 AM 21.0 °F - 10.9 °F 65% 30.40 in 10.0 mi Calm Calm - N/A   Clear
12:53 PM 24.1 °F - 10.9 °F 57% 30.38 in 10.0 mi Calm Calm - N/A   Clear
1:53 PM 28.0 °F 16.1 °F 10.0 °F 47% 30.35 in 10.0 mi NNW 16.1 mph - N/A   Clear
2:53 PM 28.0 °F 19.3 °F 10.9 °F 49% 30.37 in 10.0 mi NNW 9.2 mph - N/A   Clear
3:53 PM 26.1 °F 16.8 °F 10.0 °F 51% 30.38 in 10.0 mi West 9.2 mph - N/A   Clear
4:53 PM 21.0 °F 14.6 °F 9.0 °F 60% 30.37 in 10.0 mi NW 4.6 mph - N/A   Clear
5:53 PM 12.0 °F 2.7 °F 5.0 °F 73% 30.38 in 10.0 mi West 5.8 mph - N/A   Clear
6:53 PM 12.9 °F 1.6 °F 5.0 °F 71% 30.39 in 10.0 mi WNW 8.1 mph - N/A   Clear
7:53 PM 12.9 °F 5.2 °F 5.0 °F 71% 30.37 in 10.0 mi WSW 4.6 mph - N/A   Clear
8:53 PM 15.1 °F 9.4 °F 5.0 °F 64% 30.35 in 10.0 mi SW 3.5 mph - N/A   Clear
9:53 PM 14.0 °F 8.2 °F 6.1 °F 71% 30.32 in 10.0 mi SSW 3.5 mph - N/A   Clear
10:53 PM 12.9 °F 3.8 °F 3.9 °F 67% 30.28 in 10.0 mi SSW 5.8 mph - N/A   Clear
11:53 PM 15.1 °F 7.7 °F 5.0 °F 64% 30.25 in 10.0 mi SW 4.6 mph - N/A   Clear